[[{"header":{"parameterUnit":"m.s-1","parameterCategory":1,"la1":30.2991,"la2":30.254,"lo1":-89.0895,"lo2":-89.0444,"dy":0.0017,"dx":0.0017,"nx":28,"ny":28,"refTime":"2025-06-17T03:00:00:Z","depth":0,"parameterNumber":2,"parameterNumberName":"U-component_of_WINDS"},"data":[0,0,0,0,0,0,0,0,0,0,0,0,0,0,0,0,0,0,0,0,0,0,0,0,0,0,0,0,0,0,0,0,0,0,0,0,0,0,0,0,0,0,0,0,0,0,0,0,0,0,0,0,0,0,0,0,0,0,1.5255,1.5256,0,1.5292,1.5293,1.5293,1.5287,1.5287,1.5286,1.5286,1.5323,1.5325,1.5326,0,0,0,0,0,0,0,0,0,0,0,0,0,1.5177,1.5178,1.5255,1.5256,1.5256,1.5292,1.5293,1.5293,1.5288,1.5287,1.5286,1.5285,1.5323,1.5325,1.5327,0,0,0,0,0,0,0,0,0,0,0,0,0,1.5212,1.5179,1.5255,1.5258,1.5258,1.5292,1.5293,1.5293,1.5288,1.5287,1.5286,1.5285,1.5322,1.5325,1.5327,1.5361,0,0,1.5334,1.5335,0,0,0,0,0,0,0,0,1.521,1.5215,1.5257,1.5257,1.5258,1.5284,1.5279,1.5316,1.5288,1.5277,1.5286,1.5285,1.5311,1.5314,1.5323,1.5362,1.5364,1.5334,1.5336,1.5337,1.5338,0,0,0,0,0,0,0,1.5208,1.5213,1.527,1.5257,1.5258,1.5256,1.526,1.5286,1.5299,1.5277,1.5277,1.5282,1.5311,1.5321,1.5324,1.5365,1.5334,1.5336,1.5338,1.5339,1.543,1.5431,0,0,0,0,0,0,1.5205,1.5211,1.5269,1.5271,1.5231,1.5258,1.5263,1.5277,1.5298,1.5301,1.5282,1.5281,1.5317,1.5321,1.5326,1.5364,1.5337,1.5339,1.534,1.5429,1.543,1.5431,0,0,0,0,0,0,1.5203,1.521,1.5267,1.5241,1.5248,1.5261,1.5277,1.5278,1.5288,1.5302,1.5304,1.529,1.5317,1.5322,1.5351,1.5366,1.534,1.5342,1.5428,1.5429,1.5431,1.5443,0,0,0,0,0,0,1.5201,1.5209,1.5223,1.5241,1.525,1.5293,1.5278,1.528,1.5292,1.5291,1.531,1.5312,1.5317,1.5348,1.5354,1.5368,1.5344,1.5427,1.5429,1.543,1.5442,1.5445,1.5448,0,0,0,0,0,1.5198,1.5226,1.5224,1.5231,1.5267,1.5294,1.5298,1.5303,1.5293,1.5306,1.5315,1.5312,1.5363,1.5351,1.5357,1.5373,1.5426,1.5428,1.543,1.544,1.5444,1.5448,0,0,0,0,0,0,1.5209,1.5228,1.5226,1.5261,1.5275,1.5293,1.531,1.5308,1.5326,1.5324,1.5328,1.5333,1.5362,1.5371,1.5356,1.5405,1.5393,1.5397,1.5398,1.5403,1.5406,1.5402,1.5346,0,0,0,0,0,1.5215,1.5236,1.5251,1.528,1.5288,1.5297,1.5309,1.5311,1.5327,1.5333,1.5344,1.5359,1.5378,1.5391,1.541,1.5443,1.5446,1.5457,1.546,1.5463,1.5465,1.5481,1.5486,1.5439,1.5439,1.5439,0,0,1.5228,1.5241,1.5254,1.5282,1.5294,1.5314,1.5303,1.5325,1.534,1.5337,1.5364,1.5373,1.539,1.542,1.5434,1.5428,1.5479,1.5466,1.5467,1.5469,1.5484,1.5488,1.5492,1.544,1.544,1.544,0,0,1.5263,1.5276,1.5299,1.5311,1.5329,1.5335,1.5341,1.5358,1.5363,1.5391,1.5388,1.5405,1.5439,1.5451,1.5461,1.5497,1.5494,1.5503,1.5519,1.5534,1.5538,1.5541,1.5552,1.5556,1.5506,1.5506,1.5506,0,1.5277,1.5308,1.5312,1.5334,1.5346,1.5343,1.5367,1.5378,1.5401,1.5408,1.5402,1.5442,1.5454,1.5486,1.5494,1.5504,1.5509,1.5501,1.5537,1.5541,1.5544,1.5554,1.5558,1.5507,1.5507,1.5507,1.5507,0,1.5323,1.5344,1.5361,1.5383,1.5396,1.5419,1.5426,1.5439,1.544,1.5446,1.5473,1.5486,1.5507,1.5515,1.5516,1.5546,1.5542,1.5536,1.5524,1.5549,1.5559,1.5563,1.5508,1.5508,1.5508,1.5508,0,0,1.5365,1.5387,1.5394,1.5402,1.5421,1.5437,1.5459,1.5478,1.5488,1.5504,1.5521,1.5549,1.5543,1.5555,1.5557,1.5571,1.5596,1.5563,1.5564,1.5567,1.5628,1.5631,1.5635,1.5594,1.5595,1.5596,1.5626,0,1.5399,1.5438,1.5442,1.5476,1.5494,1.5491,1.551,1.5523,1.5529,1.5545,1.5552,1.557,1.5563,1.5569,1.5583,1.559,1.5608,1.5588,1.5609,1.561,1.5603,1.5641,1.5644,1.5672,1.563,1.563,1.5631,0,1.5445,1.546,1.5496,1.551,1.5518,1.5535,1.5551,1.5567,1.5581,1.5584,1.5596,1.5596,1.5618,1.5605,1.5633,1.562,1.5628,1.5633,1.5634,1.5635,1.5621,1.5641,1.5681,1.5685,1.5637,1.5637,1.5636,0,1.5469,1.55,1.5524,1.5532,1.5549,1.5561,1.5568,1.5581,1.5592,1.5607,1.5613,1.5631,1.564,1.5653,1.5657,1.5648,1.5685,1.5673,1.5687,1.5687,1.5694,1.5693,1.5734,1.5702,1.5702,1.5702,1.5702,0,1.5506,1.5527,1.5535,1.555,1.5573,1.5577,1.56,1.5607,1.5618,1.5633,1.5633,1.5647,1.5652,1.5668,1.5671,1.5693,1.5698,1.57,1.57,1.5699,1.5698,1.5704,1.5701,1.5703,1.5703,1.5703,1.5703,0,1.5537,1.5543,1.5569,1.5583,1.5587,1.5603,1.5615,1.5628,1.5634,1.5653,1.5658,1.5667,1.5684,1.569,1.5711,1.5714,1.5738,1.5738,1.5733,1.5733,1.5746,1.5744,1.5791,1.5796,1.5762,1.5762,1.5763,0,1.5559,1.5576,1.559,1.56,1.5608,1.5625,1.5635,1.5639,1.565,1.5666,1.5678,1.5695,1.5709,1.5737,1.5744,1.576,1.5759,1.5775,1.5762,1.5759,1.5757,1.5756,1.5756,1.5777,1.5777,1.5777,1.5778,0,1.5598,1.5599,1.5615,1.563,1.5643,1.5656,1.5668,1.5676,1.5682,1.5694,1.5711,1.5722,1.5743,1.5759,1.5775,1.5783,1.578,1.5782,1.5785,1.5783,1.5779,1.578,1.5738,1.578,1.578,1.578,1.578,1.578,1.5624,1.5637,1.5649,1.5665,1.5675,1.5686,1.5698,1.5705,1.572,1.5737,1.5738,1.5757,1.5768,1.5789,1.5797,1.5811,1.5807,1.5813,1.5814,1.5815,1.5815,1.5778,1.5815,1.5814,1.5814,1.5814,1.5814,0,1.566,1.5667,1.5682,1.5699,1.5711,1.5708,1.5721,1.5731,1.5747,1.5759,1.5772,1.5791,1.5807,1.5815,1.583,1.584,1.5839,1.5844,1.5842,1.5844,1.5819,1.5813,1.5844,1.5844,1.5844,1.5844,1.5844,1.5844,1.568,1.5702,1.5705,1.573,1.5737,1.5755,1.5762,1.5772,1.578,1.5802,1.5814,1.582,1.5829,1.5845,1.5859,1.5861,1.5866,1.5871,1.5872,1.5849,1.5846,1.5843,1.5837,1.5872,1.5872,1.5895,1.5895,1.5895]},{"header":{"parameterUnit":"m.s-1","parameterCategory":1,"la1":30.2991,"la2":30.254,"lo1":-89.0895,"lo2":-89.0444,"dy":0.0017,"dx":0.0017,"nx":28,"ny":28,"refTime":"2025-06-17T03:00:00:Z","depth":0,"parameterNumber":3,"parameterNumberName":"V-component_of_WINDS"},"data":[0,0,0,0,0,0,0,0,0,0,0,0,0,0,0,0,0,0,0,0,0,0,0,0,0,0,0,0,0,0,0,0,0,0,0,0,0,0,0,0,0,0,0,0,0,0,0,0,0,0,0,0,0,0,0,0,0,0,4.6445,4.6446,0,4.6588,4.659,4.6592,4.6564,4.6561,4.6559,4.6556,4.6699,4.6705,4.6712,0,0,0,0,0,0,0,0,0,0,0,0,0,4.6141,4.6146,4.6444,4.6446,4.6448,4.6588,4.659,4.6592,4.6564,4.6561,4.6558,4.6555,4.6697,4.6705,4.6712,0,0,0,0,0,0,0,0,0,0,0,0,0,4.6277,4.6148,4.6444,4.6451,4.6453,4.6588,4.659,4.6593,4.6565,4.6561,4.6557,4.6553,4.6695,4.6704,4.6713,4.6849,0,0,4.6742,4.6746,0,0,0,0,0,0,0,0,4.6269,4.6288,4.6448,4.6451,4.6453,4.6554,4.6535,4.6678,4.6566,4.6522,4.6556,4.6552,4.6654,4.6666,4.6702,4.6855,4.6861,4.6743,4.6748,4.6752,4.6755,0,0,0,0,0,0,0,4.626,4.6282,4.6501,4.6451,4.6454,4.6445,4.6461,4.6562,4.6608,4.6526,4.6524,4.6542,4.6655,4.6693,4.6705,4.6863,4.6742,4.6751,4.6756,4.676,4.7133,4.7137,0,0,0,0,0,0,4.6249,4.6274,4.6497,4.6506,4.635,4.6454,4.6471,4.6526,4.6607,4.6616,4.6545,4.654,4.6679,4.6694,4.671,4.6872,4.6752,4.6761,4.6766,4.7129,4.7134,4.7138,0,0,0,0,0,0,4.6242,4.6269,4.6491,4.639,4.6417,4.6463,4.6525,4.6531,4.6569,4.6621,4.6629,4.6576,4.6676,4.6697,4.6814,4.6877,4.6765,4.6774,4.7123,4.713,4.7136,4.7199,0,0,0,0,0,0,4.6234,4.6267,4.632,4.6391,4.6423,4.6595,4.6529,4.6536,4.6586,4.658,4.6653,4.6661,4.6675,4.68,4.6823,4.6888,4.6781,4.7118,4.7126,4.7134,4.7192,4.7207,4.722,0,0,0,0,0,4.6223,4.6332,4.6323,4.635,4.6491,4.6598,4.6616,4.6631,4.6591,4.6644,4.6677,4.6658,4.6866,4.6813,4.6838,4.6907,4.7114,4.7124,4.7133,4.7186,4.7204,4.722,0,0,0,0,0,0,4.6266,4.6341,4.6332,4.6468,4.6527,4.6593,4.6661,4.6651,4.6722,4.6714,4.6729,4.6745,4.6864,4.6897,4.6836,4.7041,4.6984,4.7,4.7015,4.7033,4.7047,4.7037,4.6789,0,0,0,0,0,4.6291,4.6374,4.6435,4.6548,4.6578,4.6615,4.6662,4.6669,4.673,4.6755,4.6797,4.6856,4.6934,4.6985,4.7061,4.7196,4.7211,4.7256,4.727,4.7281,4.7294,4.7367,4.7387,4.717,4.717,4.717,0,0,4.6344,4.6396,4.6447,4.6558,4.6605,4.6688,4.6636,4.6727,4.6788,4.6768,4.6881,4.6914,4.6981,4.7108,4.7165,4.7139,4.7357,4.7294,4.7302,4.7309,4.7379,4.7399,4.7417,4.7177,4.7175,4.7174,0,0,4.6484,4.6531,4.663,4.6678,4.675,4.6773,4.6797,4.6865,4.6886,4.7,4.6986,4.7059,4.7194,4.7242,4.7284,4.7439,4.7424,4.7463,4.7537,4.7608,4.7625,4.764,4.7694,4.7714,4.7476,4.7476,4.7476,0,4.654,4.6667,4.6682,4.6775,4.6823,4.6809,4.6908,4.6953,4.7045,4.7078,4.7047,4.7216,4.726,4.7397,4.7435,4.7469,4.7495,4.7455,4.7621,4.7637,4.7651,4.7703,4.7723,4.748,4.748,4.7479,4.7479,0,4.6732,4.682,4.6891,4.6981,4.7038,4.7133,4.7161,4.7216,4.7217,4.7242,4.7358,4.741,4.7495,4.7528,4.753,4.7665,4.7646,4.7618,4.7561,4.7676,4.7724,4.7745,4.7486,4.7485,4.7483,4.7482,0,0,4.6903,4.7,4.7025,4.7065,4.7143,4.721,4.7304,4.7388,4.7434,4.7497,4.7575,4.7689,4.7664,4.7711,4.7718,4.778,4.7898,4.7744,4.7746,4.777,4.8048,4.8068,4.8091,4.7888,4.7892,4.7895,4.8042,0,4.7049,4.7216,4.7231,4.738,4.746,4.7447,4.7529,4.7584,4.761,4.768,4.7708,4.7789,4.775,4.7778,4.7839,4.7871,4.7954,4.786,4.7959,4.7962,4.7942,4.8117,4.8138,4.8274,4.8061,4.8065,4.8067,0,4.7241,4.7311,4.7468,4.7533,4.7567,4.764,4.7717,4.7786,4.7847,4.7861,4.7914,4.7912,4.8006,4.7946,4.8075,4.8012,4.8052,4.8074,4.808,4.8089,4.8021,4.813,4.8318,4.8338,4.8097,4.8095,4.8093,0,4.7349,4.7482,4.7593,4.7627,4.7706,4.7757,4.7792,4.785,4.7899,4.7966,4.7997,4.8074,4.8116,4.8174,4.8192,4.8147,4.832,4.8262,4.8333,4.8333,4.837,4.8367,4.8567,4.8398,4.8397,4.8397,4.8396,0,4.7509,4.7606,4.7642,4.771,4.7817,4.7833,4.7937,4.7969,4.802,4.8093,4.8086,4.8154,4.8174,4.8245,4.826,4.8363,4.8382,4.8395,4.8398,4.8396,4.8394,4.8422,4.8413,4.8402,4.8401,4.84,4.8399,0,4.7648,4.7676,4.7796,4.786,4.7878,4.7954,4.8008,4.8073,4.8097,4.8189,4.8212,4.825,4.8333,4.8357,4.8456,4.8466,4.8587,4.8581,4.8567,4.8567,4.8636,4.8629,4.8861,4.8891,4.8703,4.8704,4.8706,0,4.7748,4.7822,4.7894,4.7943,4.798,4.8059,4.8108,4.8126,4.8178,4.8253,4.8308,4.839,4.8457,4.859,4.8625,4.8701,4.8696,4.8772,4.8707,4.8702,4.8696,4.8691,4.8698,4.8784,4.8786,4.8788,4.8789,0,4.7923,4.7933,4.8006,4.8084,4.8144,4.8206,4.8265,4.8305,4.833,4.8389,4.8474,4.8526,4.8628,4.8709,4.8785,4.8818,4.8808,4.8809,4.8829,4.8828,4.8816,4.8822,4.8599,4.8804,4.8802,4.8801,4.88,4.88,4.8045,4.8109,4.817,4.8251,4.8297,4.8353,4.8416,4.8449,4.8521,4.8605,4.8611,4.8703,4.876,4.8862,4.89,4.8971,4.8948,4.8978,4.8985,4.8992,4.8997,4.8805,4.8984,4.8984,4.8984,4.8983,4.8983,0,4.8218,4.8256,4.8331,4.8414,4.8477,4.8463,4.8527,4.858,4.8662,4.8717,4.8783,4.888,4.8958,4.9,4.9077,4.9126,4.9122,4.9145,4.9141,4.9149,4.9014,4.8988,4.9146,4.9146,4.9146,4.9146,4.9146,4.9146,4.8316,4.8424,4.8441,4.8571,4.8608,4.8699,4.8737,4.8787,4.8831,4.894,4.9005,4.9032,4.9081,4.9162,4.9232,4.9242,4.927,4.9296,4.9303,4.9175,4.9159,4.9143,4.9119,4.9302,4.9302,4.9432,4.9433,4.9434]}]]